GW0092 Weather Reports


time (UTC)temp
F
wind
direction
speed
knots
gust
knots
rain 1hr
in
rain 24hr
in
rain mn
in
humidity
%
barometer
mb
20260507144551 55 309 2.6 7.0 0.00 0.12 0.10 83 1012.4
20260507143056 55 349 1.7 6.1 0.00 0.12 0.10 84 1012.0
20260507141549 54 302 1.7 4.3 0.00 0.12 0.10 87 1011.9
20260507140053 54 314 0.9 2.6 0.00 0.12 0.10 86 1012.0
20260507134553 53 29 0.9 3.5 0.01 0.12 0.10 86 1012.0
20260507133056 53 0 0.9 4.3 0.01 0.12 0.10 86 1012.2
20260507131557 53 333 1.7 6.1 0.01 0.12 0.10 86 1011.8
20260507130055 54 325 2.6 7.8 0.01 0.12 0.10 87 1011.7
20260507124601 54 344 2.6 5.2 0.00 0.11 0.09 89 1012.4
20260507123051 54 15 0.9 5.2 0.00 0.11 0.09 91 1012.2
20260507121553 54 319 1.7 6.1 0.00 0.11 0.09 92 1012.1
20260507120053 54 310 1.7 5.2 0.00 0.11 0.09 91 1012.0
20260507114608 54 329 3.5 7.0 0.00 0.11 0.09 93 1011.7
20260507113124 54 328 1.7 5.2 0.00 0.11 0.09 94 1011.4
20260507111558 54 27 2.6 7.8 0.00 0.11 0.09 95 1011.4
20260507104600 55 284 2.6 9.6 0.00 0.11 0.09 96 1011.5
20260507103106 55 310 2.6 7.8 0.00 0.11 0.09 97 1011.1
20260507101607 56 17 3.5 10.4 0.00 0.11 0.09 97 1010.8
20260507100115 57 302 3.5 7.0 0.00 0.11 0.09 97 1011.1
20260507094615 57 359 4.3 7.0 0.00 0.11 0.09 97 1010.7
20260507093057 57 352 2.6 7.8 0.02 0.11 0.09 97 1010.5
20260507091636 58 340 5.2 8.7 0.02 0.11 0.09 97 1010.1
20260507084603 60 293 6.1 13.9 0.03 0.11 0.09 96 1009.7
20260507083053 63 302 2.6 5.2 0.01 0.09 0.07 98 1009.2
20260507081559 64 320 0.9 2.6 0.01 0.09 0.07 98 1008.8
20260507080055 63 302 0.0 0.9 0.00 0.08 0.06 98 1008.6
20260507074614 63 268 0.0 0.0 0.00 0.08 0.06 98 1008.5
20260507073055 63 0 0.0 0.9 0.00 0.08 0.06 98 1008.3
20260507071553 63 136 0.0 0.9 0.00 0.08 0.06 97 1008.3
20260507070054 64 0 0.0 1.7 0.06 0.08 0.06 97 1008.6
20260507064557 64 0 0.0 1.7 0.06 0.08 0.06 97 1008.6
20260507063053 64 315 0.9 4.3 0.06 0.08 0.06 97 1008.8
20260507061554 65 323 1.7 9.6 0.06 0.08 0.06 96 1008.7
20260507060101 64 13 1.7 5.2 0.00 0.02 0.00 95 1009.1
20260507054557 63 358 0.9 5.2 0.00 0.02 0.00 96 1009.0
20260507053052 61 0 0.0 0.0 0.00 0.02 0.00 98 1009.0
20260507051553 61 0 0.0 0.0 0.00 0.02 0.00 97 1009.5
20260507050050 61 0 0.0 0.0 0.00 0.02 0.00 98 1009.6
20260507044605 61 0 0.0 0.0 0.00 0.02 0.00 97 1009.9
20260507043104 60 0 0.0 0.0 0.00 0.02 0.00 97 1009.9
20260507041559 61 0 0.0 0.0 0.00 0.02 0.00 97 1009.7
20260507040057 61 0 0.0 0.0 0.00 0.02 0.00 97 1009.4
20260507034555 61 0 0.0 0.0 0.00 0.02 0.02 97 1009.3
20260507033055 61 0 0.0 0.0 0.00 0.02 0.02 97 1009.4
20260507031555 61 0 0.0 0.0 0.00 0.02 0.02 97 1009.4
20260507030055 62 0 0.0 0.0 0.00 0.02 0.02 97 1009.5
20260507024555 62 0 0.0 0.0 0.00 0.02 0.02 97 1009.8
20260507023108 62 0 0.0 0.0 0.00 0.02 0.02 96 1009.7
20260507021554 62 0 0.0 0.0 0.00 0.02 0.02 96 1010.0
20260507020100 62 0 0.0 0.0 0.00 0.02 0.02 96 1010.0
20260507014557 62 0 0.0 0.0 0.00 0.02 0.02 96 1010.2
20260507013052 62 0 0.0 0.0 0.00 0.02 0.02 96 1010.1
20260507011601 63 0 0.0 0.0 0.00 0.02 0.02 95 1010.0
20260507010058 63 0 0.0 0.0 0.00 0.02 0.02 95 1010.1
20260507004550 63 0 0.0 0.0 0.00 0.02 0.02 94 1010.0
20260507003111 64 0 0.0 0.0 0.00 0.02 0.02 94 1009.8
20260507001612 64 0 0.0 0.0 0.00 0.02 0.02 93 1009.7
20260507000058 65 131 0.9 1.7 0.00 0.02 0.02 93 1009.4
20260506234555 65 145 0.0 0.9 0.00 0.02 0.02 92 1009.6
20260506233055 65 120 0.9 0.9 0.00 0.02 0.02 91 1009.4
20260506231604 66 0 0.0 1.7 0.00 0.02 0.02 90 1009.4
20260506230113 67 123 0.9 2.6 0.00 0.02 0.02 90 1009.5
20260506224553 67 114 0.9 1.7 0.00 0.02 0.02 89 1009.5
20260506223054 68 141 0.9 2.6 0.00 0.02 0.02 88 1009.6
20260506221606 68 131 0.9 1.7 0.00 0.02 0.02 89 1009.6
20260506220056 67 120 0.0 1.7 0.00 0.02 0.02 89 1009.5
20260506214554 67 0 0.9 2.6 0.00 0.02 0.02 89 1009.9
20260506213106 67 150 0.9 1.7 0.00 0.02 0.02 89 1009.5
20260506211555 67 112 0.9 3.5 0.00 0.02 0.02 88 1009.6
20260506210104 67 112 0.9 1.7 0.00 0.02 0.02 89 1009.3
20260506204602 67 112 0.9 4.3 0.00 0.02 0.02 89 1009.6
20260506203121 67 131 0.0 3.5 0.00 0.02 0.02 89 1009.6
20260506201556 67 115 0.9 4.3 0.00 0.02 0.02 89 1009.8
20260506200057 67 117 0.9 3.5 0.00 0.02 0.02 89 1009.7
20260506194600 67 136 1.7 5.2 0.00 0.02 0.02 89 1010.0
20260506193104 67 65 1.7 4.3 0.00 0.02 0.02 90 1010.2
20260506191553 67 89 1.7 3.5 0.00 0.02 0.02 91 1010.9
20260506190056 66 106 1.7 4.3 0.00 0.02 0.02 92 1010.8
20260506184554 66 134 1.7 7.0 0.00 0.02 0.02 91 1010.9
20260506183105 66 141 0.9 5.2 0.01 0.02 0.02 92 1011.1
20260506181556 67 138 0.9 6.1 0.02 0.02 0.02 93 1011.0
20260506180058 66 82 1.7 6.1 0.02 0.02 0.02 95 1011.3
20260506174556 65 138 0.9 5.2 0.02 0.02 0.02 95 1011.3
20260506173059 65 147 0.9 4.3 0.01 0.01 0.01 92 1011.6
20260506171550 66 139 1.7 8.7 0.00 0.00 0.00 91 1011.9
20260506170057 66 169 0.9 2.6 0.00 0.00 0.00 90 1011.9
20260506164606 67 124 0.9 4.3 0.00 0.00 0.00 89 1012.6
20260506163101 67 74 1.7 7.0 0.00 0.00 0.00 88 1012.8
20260506161555 67 97 1.7 7.0 0.00 0.00 0.00 86 1012.9
20260506160057 68 82 1.7 8.7 0.00 0.00 0.00 85 1012.9
20260506154554 68 151 2.6 11.3 0.00 0.00 0.00 86 1013.0
20260506153053 68 161 2.6 7.0 0.00 0.00 0.00 84 1013.1
20260506151600 67 124 1.7 7.0 0.00 0.00 0.00 85 1013.1